Weather History for KFBG - May, 2013

Change the Weather History Date:

Sunday, May 19, 2013

  Actual Average (KFAY) Record (KFAY)
Temperature  
Mean Temperature 74 °F 72 °F  
Max Temperature 80 °F 83 °F 96 °F (1996)
Min Temperature 68 °F 60 °F 44 °F (1984)
Degree Days  
Heating Degree Days 0 0  
Month to date heating degree days 23  
Since 1 July heating degree days 2730  
Cooling Degree Days 9 7  
Month to date cooling degree days 98  
Year to date cooling degree days 181  
Growing Degree Days 24 (Base 50)    
Moisture  
Dew Point 68 °F    
Average Humidity 93    
Maximum Humidity 100    
Minimum Humidity 65    
Precipitation  
Precipitation 1.28 in 0.11 in 2.15 in (1925)
Month to date precipitation 1.70  
Year to date precipitation 14.13  
Sea Level Pressure  
Sea Level Pressure 30.12 in    
Wind  
Wind Speed 6 mph (South)    
Max Wind Speed 21 mph    
Max Gust Speed 26 mph    
Visibility 7 miles    
Events Rain , Thunderstorm    
T = Trace of Precipitation, MM = Missing Value Source: NWS Daily Summary

Daily Weather History Graph

Daily Weather History Graph

Search for Another Location

Airport or City:

Trip Planner

Search our weather history database for the weather conditions in past years. The results will help you decide how hot, cold, wet, or windy it might be!

Date:

Astronomy

May. 19, 2013 Rise Set
Actual Time 6:08 AM EDT 8:16 PM EDT
Civil Twilight 5:40 AM EDT 8:44 PM EDT
Nautical Twilight 5:05 AM EDT 9:19 PM EDT
Astronomical Twilight 4:28 AM EDT 9:56 PM EDT
Moon 2:31 PM EDT (5/19) 2:17 AM EDT (5/19)
Length of Visible Light 15h 04m
Length of Day
14h 07m
Waxing Gibbous, 65% of the Moon is Illuminated
May 19
Waxing Gibbous
May 25
Full
May 31
Last Quarter
Jun 8
New
Jun 16
First Quarter

Hourly Weather History & Observations

Time (EDT) Temp. Heat Index Dew Point Humidity Pressure Visibility Wind Dir Wind Speed Gust Speed Precip Events Conditions
12:24 AM 69.8 °F - 69.8 °F 100% 30.14 in 10.0 mi East 2.3 mph - N/A   Mostly Cloudy
12:44 AM 69.8 °F - 68.0 °F 94% 30.13 in 10.0 mi ESE 2.3 mph - N/A   Mostly Cloudy
12:58 AM 69.6 °F - 68.9 °F 98% 30.14 in 10.0 mi SE 2.3 mph - N/A   Mostly Cloudy
1:58 AM 69.3 °F - 68.7 °F 98% 30.12 in 10.0 mi SE 2.3 mph - N/A   Scattered Clouds
2:58 AM 69.1 °F - 68.7 °F 99% 30.12 in 10.0 mi SSE 3.5 mph - N/A   Scattered Clouds
3:58 AM 69.3 °F - 68.9 °F 99% 30.12 in 10.0 mi SSE 2.3 mph - N/A   Partly Cloudy
4:58 AM 68.9 °F - 68.5 °F 99% 30.12 in 10.0 mi ESE 2.3 mph - N/A   Partly Cloudy
5:58 AM 68.5 °F - 68.2 °F 99% 30.12 in 10.0 mi ESE 2.3 mph - N/A   Scattered Clouds
6:58 AM 68.5 °F - 68.2 °F 99% 30.14 in 10.0 mi East 2.3 mph - N/A   Mostly Cloudy
7:58 AM 69.1 °F - 68.9 °F 99% 30.14 in 10.0 mi SE 3.5 mph - N/A   Partly Cloudy
8:58 AM 70.9 °F - 69.6 °F 96% 30.16 in 10.0 mi SE 5.8 mph - N/A   Partly Cloudy
9:30 AM 71.6 °F - 69.8 °F 94% 30.16 in 10.0 mi SSE 4.6 mph - N/A   Mostly Cloudy
9:32 AM 71.6 °F - 69.8 °F 94% 30.15 in 10.0 mi SSE 5.8 mph - N/A   Scattered Clouds
9:58 AM 72.9 °F - 69.4 °F 89% 30.16 in 10.0 mi SE 5.8 mph - N/A   Partly Cloudy
10:58 AM 77.2 °F - 69.8 °F 78% 30.14 in 10.0 mi SSE 8.1 mph - N/A   Scattered Clouds
11:06 AM 77.0 °F - 69.8 °F 78% 30.14 in 10.0 mi WSW 10.4 mph - N/A   Mostly Cloudy
11:09 AM 77.0 °F - 68.0 °F 74% 30.14 in 10.0 mi WSW 20.7 mph 26.5 mph N/A Rain Light Rain
11:17 AM 73.4 °F - 69.8 °F 88% 30.15 in 2.5 mi SW 11.5 mph 26.5 mph N/A Rain , Thunderstorm Heavy Rain
11:19 AM 71.6 °F - 68.0 °F 88% 30.15 in 1.5 mi WSW 12.7 mph 26.5 mph N/A Rain , Thunderstorm Heavy Rain
11:21 AM 71.6 °F - 68.0 °F 88% 30.15 in 1.2 mi WSW 9.2 mph - N/A Rain , Thunderstorm Rain
11:25 AM 71.6 °F - 68.0 °F 88% 30.15 in 1.5 mi WSW 8.1 mph - N/A Rain , Thunderstorm Light Rain
11:27 AM 71.6 °F - 69.8 °F 94% 30.15 in 2.0 mi WSW 9.2 mph - N/A Rain , Thunderstorm Light Rain
11:29 AM 69.8 °F - 69.8 °F 100% 30.15 in 4.0 mi SW 8.1 mph - N/A Rain , Thunderstorm Light Rain
11:40 AM 69.8 °F - 68.0 °F 94% 30.16 in 10.0 mi South 4.6 mph - N/A Rain , Thunderstorm Light Rain
11:50 AM 69.8 °F - 68.0 °F 94% 30.17 in 9.0 mi SSE 4.6 mph - N/A Rain , Thunderstorm Light Rain
11:52 AM 69.8 °F - 68.0 °F 94% 30.16 in 8.0 mi SSE 4.6 mph - N/A Rain , Thunderstorm Light Rain
11:58 AM 69.1 °F - 67.6 °F 95% 30.17 in 5.0 mi SE 3.5 mph - 0.19 in Rain Light Rain
12:10 PM 68.0 °F - 68.0 °F 100% 30.16 in 7.0 mi SE 3.5 mph - N/A Rain Light Rain
12:26 PM 69.8 °F - 69.8 °F 100% 30.15 in 10.0 mi South 5.8 mph - N/A Rain Light Rain
12:36 PM 69.8 °F - 69.8 °F 100% 30.14 in 10.0 mi SE 4.6 mph - N/A Rain Light Rain
12:42 PM 69.8 °F - 69.8 °F 100% 30.14 in 10.0 mi SE 4.6 mph - N/A Rain Light Rain
12:50 PM 69.8 °F - 69.8 °F 100% 30.14 in 10.0 mi SSE 5.8 mph - N/A   Partly Cloudy
12:58 PM 70.2 °F - 69.8 °F 99% 30.15 in 10.0 mi SSE 5.8 mph - 0.06 in   Partly Cloudy
1:58 PM 74.5 °F - 69.1 °F 83% 30.12 in 10.0 mi South 10.4 mph - N/A   Mostly Cloudy
2:58 PM 76.8 °F - 65.3 °F 67% 30.11 in 10.0 mi SSE 6.9 mph - N/A   Scattered Clouds
3:58 PM 80.1 °F 82.4 °F 67.3 °F 65% 30.08 in 10.0 mi SE 8.1 mph - N/A   Partly Cloudy
4:58 PM 78.8 °F - 66.6 °F 66% 30.08 in 10.0 mi SSE 8.1 mph - N/A   Scattered Clouds
5:58 PM 78.1 °F - 67.3 °F 69% 30.06 in 10.0 mi SSE 9.2 mph - N/A   Partly Cloudy
6:13 PM 73.4 °F - 66.2 °F 78% 30.07 in 10.0 mi SSW 15.0 mph 23.0 mph N/A Rain Light Rain
6:19 PM 71.6 °F - 68.0 °F 88% 30.08 in 2.5 mi South 15.0 mph 26.5 mph N/A Rain , Thunderstorm Light Rain
6:20 PM 71.6 °F - 68.0 °F 88% 30.09 in 1.8 mi South 16.1 mph 26.5 mph N/A Rain , Thunderstorm Heavy Rain
6:22 PM 69.8 °F - 68.0 °F 94% 30.08 in 1.2 mi South 13.8 mph 26.5 mph N/A Rain , Thunderstorm Heavy Rain
6:24 PM 69.8 °F - 68.0 °F 94% 30.09 in 1.0 mi South 10.4 mph 26.5 mph N/A Rain , Thunderstorm Heavy Rain
6:26 PM 69.8 °F - 68.0 °F 94% 30.08 in 0.8 mi South 11.5 mph 26.5 mph N/A Rain , Thunderstorm Heavy Rain
6:32 PM 68.0 °F - 68.0 °F 100% 30.09 in 0.8 mi South 9.2 mph 17.3 mph N/A Rain Heavy Rain
6:40 PM 68.0 °F - 68.0 °F 100% 30.09 in 1.0 mi Variable 5.8 mph - N/A Rain Heavy Rain
6:42 PM 68.0 °F - 68.0 °F 100% 30.09 in 1.0 mi South 9.2 mph - N/A Rain Heavy Rain
6:44 PM 68.0 °F - 68.0 °F 100% 30.08 in 1.2 mi South 8.1 mph - N/A Rain Heavy Rain
6:46 PM 68.0 °F - 68.0 °F 100% 30.08 in 1.8 mi SSW 8.1 mph - N/A Rain Heavy Rain
6:48 PM 68.0 °F - 68.0 °F 100% 30.08 in 2.0 mi SSW 8.1 mph - N/A Rain Rain
6:52 PM 68.0 °F - 68.0 °F 100% 30.09 in 3.0 mi Variable 6.9 mph - N/A Rain Light Rain
6:58 PM 68.7 °F - 68.4 °F 99% 30.10 in 5.0 mi SSW 6.9 mph - 0.82 in Rain Light Rain
7:58 PM 68.7 °F - 68.5 °F 99% 30.11 in 5.0 mi SSW 5.8 mph - 0.14 in Rain Rain
8:22 PM 68.0 °F - 68.0 °F 100% 30.10 in 10.0 mi SSW 3.5 mph - N/A Rain Light Rain
8:26 PM 68.0 °F - 68.0 °F 100% 30.10 in 10.0 mi South 3.5 mph - N/A Rain Light Rain
8:30 PM 68.0 °F - 68.0 °F 100% 30.09 in 10.0 mi South 4.6 mph - N/A Rain Light Rain
8:38 PM 69.8 °F - 68.0 °F 94% 30.09 in 10.0 mi South 3.5 mph - N/A Rain Light Rain
8:58 PM 68.9 °F - 68.5 °F 99% 30.10 in 10.0 mi South 3.5 mph - 0.07 in   Light Drizzle
8:59 PM 68.0 °F - 68.0 °F 100% 30.09 in 10.0 mi South 3.5 mph - N/A   Clear
9:58 PM 68.9 °F - 68.5 °F 99% 30.12 in 10.0 mi SE 2.3 mph - 0.00 in   Scattered Clouds
10:58 PM 68.9 °F - 68.5 °F 99% 30.13 in 10.0 mi Calm Calm - N/A   Clear
11:58 PM 68.5 °F - 68.4 °F 99% 30.13 in 10.0 mi SSE 2.3 mph - N/A   Mostly Cloudy